DELTA 1 DEB, 48088

Orbit data source: Space-Track

DELTA 1 DEB, 48088 is space debris in SSO originally from a launch on Thu, 29 Jul 1976 UTC launched from the Air Force Western Test Range (AFWTR). Debris objects in space refer to the collection of defunct objects orbiting the Earth. Examples of debris include non-operational satellites, rocket bodies, and fragments generated from explosions, collisions, or faulty payload assembly.

Loading next visibility...
Identifier
48088, 1976-077GT
Orbit
SSO
Country
Flag of USUS
Related business
Manufacturer
Unknown
Mission
Spacecraft
Bus & Motor
Unknown
Mass
Unknown
Launch date (UTC)
1976-07-29 (49 years ago)
Launch vehicle
Unknown
Launch site
Air Force Western Test Range (AFWTR)
Object type
Payload
Rocket body
Debris
Shape & HBR
Unknown shape, 0.1 m
Radar Cross Section
Small (<0.1 m²)

Expand to show TLE details & history
Last TLE update: 3 days ago

TLE from 3 days ago
0 DELTA 1 DEB
1 48088U 76077GT  25346.95056895 -.00000050  00000-0 -64409-4 0  9996
2 48088 102.0859  22.1611 0115326 318.5483 159.7508 12.19247740536802
Epoch: 2025-12-12T22:48Z
TLE epoch observation values (Epoch: 2025-12-12T22:48:49.157Z)
Latitude
59.10352°
Longitude
158.9333°
Altitude
1,692.034 km
Speed
6.996 km/s
True Right ascension
14h 52m 05s
True Declination
58° 58' 10"
Sunlit
Object was in daylight at epoch
Visualization orbit readout
Latitude
Unknown
Longitude
Unknown
Altitude
Unknown
Speed
Unknown
Apparent Right ascension
Unknown
Apparent Declination
Unknown
Sunlit
N/A
Visualization observer readout
Local Sidereal Time
22:30:51
Azimuth
Unknown
Elevation
Unknown
Doppler factor
Unknown
Orbital elements
Apogee altitude
1,685.359 km
Perigee altitude
1,501.493 km
Semi-major axis
7,971.563 km
Eccentricity
0.01153
Inclination
102.0859°
RAAN
22.1611°
Arg. of periapsis
318.5483°
True anomaly
160.20208°
Mean anomaly
159.7508°
Eccentric anomaly
159.97705°
Mean motion
3.0495 °/min
Orbital period
118.05 mins
BSTAR
-0.000064409
Loading maneuver chart data...
Computing Atmospheric mass density...
Loading historical data...
Loading historical data...
Loading historical data...
Loading historical data...
Loading historical data...
Loading historical data...
Loading historical data...

Documentation

Showing up to 5 results
|